Location: Ermatingen
(47.6706°N, 9.0857°E)
Time: 02:43:01
(UTC+00:00)

In-Cosmos 22 - Pass Details

Date: 18 September 2020
Orbit: 785 x 877 km, 81.2° (Epoch: 24 October)

Event Time Altitude Azimuth Distance (km) Brightness Sun altitude
Rises 19:08:30 0° 347° (NNW) 3,288 7.8 -17.1°
Reaches altitude 10° 19:10:52 10° 346° (NNW) 2,356 7.0 -17.5°
Maximum altitude 19:16:10 78° 261° (W) 812 4.2 -18.3°
Enters shadow 19:21:24 10° 176° (S) 2,334 6.2 -19.1°
